JILIN-01 GAOFEN 3D 32 (52449 NORAD) Tracking and Keplerian Element Data
This shows tracking and keplerian element data for the satellite.
Feedback or suggestion? Click here.
Element | Value |
Catalog | 52449 |
Name | JILIN-01 GAOFEN 3D 32 |
Epoch Orbit | 634 |
Epoch Day | 167.05420236 |
Epoch Year | 2022 |
RAAN | 231.7543 |
Inclination | 97.6814 |
Eccentricity | 0.0015427 |
Argument of Perigee | 133.6139 |
Mean Anonmoly | 342.8871 |
Mean Motion | 15.1029401 |
Decay Rate | 3.817E-05 |
L1 | 1 52449U 22048G 22167.05420236 .00003817 00000+0 23647-3 0 9993 |
L2 | 2 52449 97.6814 231.7543 0015427 133.6139 342.8871 15.10294010 6340 |
Live tracking and technical data element details for JILIN-01 GAOFEN 3D 32 (NORAD 52449). JILIN-01 GAOFEN 3D 32 can be tracked NOW for your location showing map with azimuth and elevation plus other details from your city location.
Track the satellite on the map from your city or location and see movement details for azimuth, elevation, latitude, longitude, range, height, and movement on the map or in text.
IsCatalogInMostPopularTable: catalog: 52449, numindb: 2
Update: records affected: 1
GetName: 52449 JILIN-01 GAOFEN 3D 32
Hit Count: updated at: Mon, 27 Jun 2022 05:39:31 GMT